Home > Weather > Weymouth > Past weeks

Flag for United Kingdom Past Weather in Weymouth, England, United Kingdom — Yesterday and Last 2 Weeks

Now
58 °F

Cool.


Feels Like: 54 °F
Forecast: 56 / 65 °F
Wind: 18 mph from West

Location: Isle Of Portland

Current Time: Jul 2, 2016 at 10:43:41 AM

Latest Report: Jul 2, 2016 at 10:00 AM


Visibility: 11 mi

Pressure: 30.00 "Hg

Humidity: 80%

Dew Point: 52 °F

Location of WeymouthLocation

Past Weather in Weymouth — Graph

°F

Weymouth Temperature Yesterday

Maximum temperature yesterday: 61 °F (at 3:00 PM)
Minimum temperature yesterday: 56 °F (at 11:00 PM)
Average temperature yesterday: 58 °F

High & Low Weather Summary for the Past Weeks

 TemperatureHumidityPressure
High67 °F (Jun 23, 11:00 AM)100% (Jun 19, 2:00 PM)30.28 "Hg (Jun 19, 2:00 PM)
Low54 °F (Jun 18, 5:00 AM)69% (Jun 27, 6:00 PM)29.72 "Hg (Jun 17, 9:00 AM)
Average58 °F91%30.02 "Hg
* Reported Jun 17 9:00 AM — Jul 2 9:00 AM, Weymouth, Weather by CustomWeather, © 2016

Note: Actual official high and low records may vary slightly from our data, if they occured in-between our weather recording intervals... More about our weather records

Advertising

Weymouth Weather History for the Previous 24 Hours

Scroll right to see more
 ConditionsComfort  
Time TempWeatherWind HumidityBarometerVisibility
9:00 AM
Sat, Jul 2
57 °FCool.22 mph80%29.97 "Hg7 mi
8:00 AM56 °FCool.23 mph80%29.95 "Hg11 mi
7:00 AM55 °FCool.25 mph83%29.94 "Hg10 mi
6:00 AM55 °FCool.23 mph85%29.92 "Hg9 mi
5:00 AM55 °FCool.26 mph85%29.91 "Hg10 mi
4:00 AM55 °FCool.25 mph85%29.91 "Hg8 mi
3:00 AM55 °FCool.26 mph84%29.90 "Hg7 mi
2:00 AM55 °FCool.25 mph86%29.89 "Hg8 mi
1:00 AM56 °FCool.26 mph84%29.89 "Hg9 mi
12:00 AM56 °FCool.25 mph83%29.89 "Hg9 mi
11:00 PM
Fri, Jul 1
56 °FCool.23 mph79%29.89 "Hg12 mi
10:00 PM57 °FCool.22 mph86%29.88 "Hg9 mi
9:00 PM57 °FCool.16 mph84%29.87 "Hg11 mi
8:00 PM58 °FCool.18 mph88%29.85 "Hg7 mi
7:00 PM57 °FCool.20 mph85%29.85 "Hg12 mi
6:00 PM58 °FCool.29 mph81%29.83 "Hg9 mi
5:00 PM59 °FCool.28 mph80%29.83 "Hg7 mi
4:00 PM60 °FCool.28 mph83%29.83 "Hg9 mi
3:00 PM61 °FCool.26 mph79%29.83 "Hg11 mi
2:00 PM60 °FCool.24 mph79%29.83 "Hg8 mi
1:00 PM60 °FCool.22 mph82%29.84 "Hg8 mi
12:00 PM59 °FCool.21 mph84%29.84 "Hg10 mi
11:00 AM59 °FCool.21 mph90%29.84 "Hg11 mi
10:00 AM58 °FCool.20 mph93%29.84 "Hg12 mi
Weather by CustomWeather, © 2016

See weather overviewHow to use our weather pages